Hourly Weather Batina

Today, 15 July, Wednesday

Time Temperature Precipitation Wind Pressure Humidity
00:00 +23°C° 0 mm 2 mps 671 mmHg 60%
01:00 +23°C° 0 mm 2 mps 670 mmHg 62%
02:00 +22°C° 0 mm 1 mps 670 mmHg 64%
03:00 +22°C° 0 mm 1 mps 670 mmHg 67%
04:00 +22°C° 0 mm 1 mps 670 mmHg 65%
05:00 +22°C° 0 mm 1 mps 671 mmHg 63%
06:00 +23°C° 0 mm 1 mps 671 mmHg 61%
07:00 +25°C° 0 mm 1 mps 672 mmHg 53%
08:00 +27°C° 0 mm 2 mps 672 mmHg 45%
09:00 +29°C° 0 mm 3 mps 673 mmHg 37%
10:00 +30°C° 0 mm 3 mps 673 mmHg 34%
11:00 +31°C° 0 mm 3 mps 673 mmHg 31%
12:00 +33°C° 0 mm 4 mps 673 mmHg 27%
13:00 +34°C° 0 mm 4 mps 673 mmHg 25%
14:00 +34°C° 0 mm 4 mps 673 mmHg 23%
15:00 +35°C° 0 mm 4 mps 673 mmHg 21%
16:00 +33°C° 0 mm 5 mps 673 mmHg 26%
17:00 +32°C° 0 mm 5 mps 672 mmHg 31%
18:00 +30°C° 0 mm 6 mps 672 mmHg 36%
19:00 +28°C° 0.1 mm 5 mps 672 mmHg 47%
20:00 +26°C° 0.1 mm 5 mps 672 mmHg 57%
21:00 +23°C° 0.1 mm 4 mps 672 mmHg 67%
22:00 +24°C° 0 mm 3 mps 672 mmHg 68%
23:00 +22°C° 0 mm 3 mps 672 mmHg 69%

Tomorrow, 16 July, Thursday

Time Temperature Precipitation Wind Pressure Humidity
00:00 +23°C° 0 mm 2 mps 672 mmHg 69%
01:00 +23°C° 0 mm 2 mps 671 mmHg 71%
02:00 +21°C° 0 mm 2 mps 671 mmHg 73%
03:00 +21°C° 0 mm 2 mps 671 mmHg 75%
04:00 +22°C° 0 mm 1 mps 671 mmHg 72%
05:00 +23°C° 0 mm 1 mps 672 mmHg 69%
06:00 +23°C° 0 mm 1 mps 672 mmHg 65%
07:00 +25°C° 0 mm 1 mps 673 mmHg 59%
08:00 +27°C° 0 mm 2 mps 673 mmHg 52%
09:00 +28°C° 0 mm 2 mps 674 mmHg 46%
10:00 +29°C° 0 mm 3 mps 674 mmHg 42%
11:00 +31°C° 0 mm 3 mps 674 mmHg 38%
12:00 +33°C° 0 mm 4 mps 674 mmHg 34%
13:00 +33°C° 0 mm 4 mps 674 mmHg 33%
14:00 +33°C° 0 mm 5 mps 673 mmHg 32%
15:00 +34°C° 0 mm 5 mps 673 mmHg 31%
16:00 +33°C° 0 mm 5 mps 673 mmHg 34%
17:00 +32°C° 0 mm 5 mps 672 mmHg 36%
18:00 +30°C° 0 mm 4 mps 672 mmHg 39%
19:00 +28°C° 0 mm 4 mps 672 mmHg 46%
20:00 +26°C° 0 mm 4 mps 672 mmHg 52%
21:00 +25°C° 0 mm 4 mps 672 mmHg 59%
22:00 +24°C° 0 mm 3 mps 672 mmHg 60%
23:00 +24°C° 0 mm 2 mps 671 mmHg 62%

Day after tomorrow, 17 July, Friday

Time Temperature Precipitation Wind Pressure Humidity
00:00 +23°C° 0 mm 2 mps 671 mmHg 63%
01:00 +23°C° 0 mm 2 mps 671 mmHg 65%
02:00 +21°C° 0 mm 2 mps 671 mmHg 67%
03:00 +22°C° 0 mm 1 mps 671 mmHg 69%
04:00 +22°C° 0 mm 1 mps 671 mmHg 69%
05:00 +22°C° 0 mm 1 mps 671 mmHg 68%
06:00 +22°C° 0 mm 1 mps 671 mmHg 68%
07:00 +23°C° 0 mm 1 mps 672 mmHg 62%
08:00 +25°C° 0 mm 2 mps 672 mmHg 56%
09:00 +26°C° 0 mm 2 mps 672 mmHg 51%
10:00 +28°C° 0 mm 3 mps 673 mmHg 45%
11:00 +29°C° 0 mm 3 mps 673 mmHg 40%
12:00 +30°C° 0 mm 4 mps 673 mmHg 34%
13:00 +32°C° 0 mm 4 mps 672 mmHg 32%
14:00 +32°C° 0 mm 4 mps 672 mmHg 30%
15:00 +33°C° 0 mm 4 mps 672 mmHg 28%
16:00 +32°C° 0 mm 4 mps 671 mmHg 30%
17:00 +30°C° 0 mm 4 mps 671 mmHg 32%
18:00 +29°C° 0 mm 5 mps 671 mmHg 33%
19:00 +27°C° 0 mm 4 mps 671 mmHg 40%
20:00 +26°C° 0 mm 4 mps 671 mmHg 47%
21:00 +24°C° 0 mm 3 mps 671 mmHg 54%
22:00 +22°C° 0 mm 3 mps 671 mmHg 56%
23:00 +22°C° 0 mm 3 mps 671 mmHg 58%

18 July, Saturday

Time Temperature Precipitation Wind Pressure Humidity
00:00 +21°C° 0 mm 2 mps 671 mmHg 59%
01:00 +21°C° 0 mm 2 mps 670 mmHg 62%
02:00 +20°C° 0 mm 2 mps 670 mmHg 65%
03:00 +19°C° 0 mm 2 mps 670 mmHg 68%
04:00 +20°C° 0 mm 1 mps 670 mmHg 69%
05:00 +20°C° 0 mm 1 mps 671 mmHg 69%
06:00 +20°C° 0 mm 1 mps 671 mmHg 70%
07:00 +22°C° 0 mm 1 mps 671 mmHg 64%
08:00 +23°C° 0 mm 2 mps 672 mmHg 58%
09:00 +25°C° 0 mm 2 mps 672 mmHg 51%
10:00 +26°C° 0 mm 3 mps 672 mmHg 45%
11:00 +27°C° 0 mm 4 mps 673 mmHg 39%
12:00 +29°C° 0 mm 5 mps 673 mmHg 33%
13:00 +29°C° 0 mm 5 mps 672 mmHg 30%
14:00 +30°C° 0 mm 5 mps 672 mmHg 28%
15:00 +30°C° 0 mm 5 mps 672 mmHg 26%
16:00 +30°C° 0 mm 5 mps 672 mmHg 26%
17:00 +29°C° 0 mm 5 mps 672 mmHg 27%
18:00 +29°C° 0 mm 5 mps 672 mmHg 28%
19:00 +27°C° 0 mm 5 mps 672 mmHg 35%
20:00 +25°C° 0 mm 4 mps 671 mmHg 42%
21:00 +22°C° 0 mm 3 mps 671 mmHg 50%
22:00 +22°C° 0 mm 3 mps 671 mmHg 53%
23:00 +21°C° 0 mm 2 mps 671 mmHg 56%

19 July, Sunday

Time Temperature Precipitation Wind Pressure Humidity
00:00 +20°C° 0 mm 2 mps 671 mmHg 59%
01:00 +20°C° 0 mm 2 mps 671 mmHg 62%
02:00 +20°C° 0 mm 1 mps 670 mmHg 64%
03:00 +20°C° 0 mm 1 mps 670 mmHg 67%
04:00 +20°C° 0 mm 1 mps 671 mmHg 65%
05:00 +21°C° 0 mm 1 mps 671 mmHg 63%
06:00 +21°C° 0 mm 1 mps 671 mmHg 61%
07:00 +23°C° 0 mm 1 mps 672 mmHg 55%
08:00 +25°C° 0 mm 2 mps 673 mmHg 48%
09:00 +27°C° 0 mm 3 mps 673 mmHg 41%
10:00 +28°C° 0 mm 3 mps 673 mmHg 36%
11:00 +29°C° 0 mm 4 mps 674 mmHg 31%
12:00 +30°C° 0 mm 4 mps 674 mmHg 27%
13:00 +32°C° 0 mm 4 mps 673 mmHg 25%
14:00 +32°C° 0 mm 4 mps 673 mmHg 24%
15:00 +33°C° 0 mm 4 mps 673 mmHg 22%
16:00 +32°C° 0 mm 4 mps 673 mmHg 23%
17:00 +32°C° 0 mm 5 mps 673 mmHg 23%
18:00 +30°C° 0 mm 5 mps 673 mmHg 24%
19:00 +28°C° 0 mm 4 mps 673 mmHg 30%
20:00 +26°C° 0 mm 3 mps 672 mmHg 36%
21:00 +25°C° 0 mm 3 mps 672 mmHg 42%
22:00 +24°C° 0 mm 2 mps 672 mmHg 45%
23:00 +23°C° 0 mm 2 mps 672 mmHg 47%

20 July, Monday

Time Temperature Precipitation Wind Pressure Humidity
00:00 +23°C° 0 mm 2 mps 672 mmHg 50%
01:00 +22°C° 0 mm 1 mps 672 mmHg 52%
02:00 +22°C° 0 mm 1 mps 671 mmHg 54%
03:00 +19°C° 0 mm 0 mps 671 mmHg 56%
04:00 +22°C° 0 mm 1 mps 672 mmHg 53%
05:00 +23°C° 0 mm 1 mps 672 mmHg 50%
06:00 +24°C° 0 mm 1 mps 673 mmHg 47%
07:00 +25°C° 0 mm 2 mps 673 mmHg 43%
08:00 +27°C° 0 mm 2 mps 674 mmHg 40%
09:00 +28°C° 0 mm 3 mps 674 mmHg 36%
10:00 +30°C° 0 mm 3 mps 674 mmHg 32%
11:00 +32°C° 0 mm 4 mps 675 mmHg 28%
12:00 +33°C° 0 mm 4 mps 675 mmHg 24%
13:00 +33°C° 0 mm 4 mps 674 mmHg 23%
14:00 +34°C° 0 mm 4 mps 674 mmHg 21%
15:00 +34°C° 0 mm 4 mps 674 mmHg 20%
16:00 +34°C° 0 mm 4 mps 674 mmHg 20%
17:00 +33°C° 0 mm 5 mps 674 mmHg 19%
18:00 +32°C° 0 mm 5 mps 673 mmHg 19%
19:00 +30°C° 0 mm 4 mps 673 mmHg 25%
20:00 +28°C° 0 mm 3 mps 673 mmHg 31%
21:00 +26°C° 0 mm 2 mps 673 mmHg 36%
22:00 +25°C° 0 mm 2 mps 673 mmHg 38%
23:00 +24°C° 0 mm 1 mps 673 mmHg 40%
Show more